Cloud_Cover
100 100 100 100 100 100 100 93 100 100 99 99 34 65 26 7 6 4 2 3 4 1 0 1 3 2 0 2 3 0 0 0 0 0 0 0 0 0 0 0 0 0 0 0 0 0 0 0 0
100 100 100 100 100 100 100 100 100 100 100 100 100 32 11 84 5 0 3 0 2 0 0 0 0 0 0 5 0 0 0 0 0 0 0 0 0 0 0 0 0 0 0 0 0 0 1 0 0
100 100 89 100 100 100 78 95 100 100 97 79 100 23 11 4 3 2 3 5 4 0 0 0 0 0 1 5 0 0 0 0 0 0 0 0 0 0 0 0 0 0 0 4 7 0 9 12 0
100 100 80 100 100 100 92 100 100 100 100 43 79 47 39 5 5 4 5 31 34 21 2 0 0 0 3 5 0 0 0 0 0 0 0 0 0 0 0 0 0 0 2 3 0 11 4 0 0
100 100 100 100 100 100 100 100 100 96 100 97 100 100 47 100 5 47 21 100 100 99 87 4 0 0 8 3 1 0 0 0 0 0 0 0 0 0 0 0 0 5 0 0 1 10 3 0 0
100 100 100 100 100 100 100 100 100 100 100 99 100 92 100 99 21 92 96 100 100 100 1 5 0 1 0 0 4 1 0 0 0 0 0 0 0 0 0 0 1 0 0 3 6 8 0 0 0
100 100 100 100 100 100 100 100 100 100 100 100 100 100 100 100 36 19 50 40 100 98 0 8 3 5 4 3 0 5 1 0 0 4 0 0 0 0 0 0 0 0 0 0 0 0 0 0 0
100 100 100 100 100 100 100 100 100 100 100 100 100 100 100 100 48 98 51 10 44 5 35 25 77 2 5 4 2 5 0 0 5 5 0 0 0 0 0 0 0 0 0 0 0 0 0 0 0
100 100 100 100 100 100 100 100 100 92 94 99 100 100 100 100 100 47 72 5 29 33 4 14 100 72 5 5 5 5 0 5 5 1 0 0 0 0 0 0 0 0 0 0 0 0 0 0 0
90 98 100 100 100 100 100 100 100 100 73 98 84 100 100 100 44 22 18 5 5 40 17 8 18 12 50 5 5 5 2 27 5 0 0 0 0 0 0 0 0 0 0 0 0 0 0 0 0
100 100 100 98 100 99 100 100 100 100 100 100 98 84 100 94 9 0 6 11 88 100 100 20 5 16 5 2 4 5 26 95 5 0 0 0 0 0 0 0 0 7 72 0 0 29 0 0 0
100 100 93 100 100 99 8 24 100 100 100 100 100 100 100 100 88 42 41 74 100 100 100 31 10 72 0 5 4 57 100 76 0 0 0 5 5 0 0 0 0 0 0 0 98 92 64 1 52
100 100 98 95 100 81 51 25 73 100 100 100 100 83 25 62 5 29 23 100 58 100 100 80 5 9 11 5 5 65 90 7 0 0 2 5 5 3 0 0 0 0 5 12 97 43 17 28 66
100 100 91 55 36 98 96 69 24 100 100 100 100 60 5 5 12 89 98 100 98 100 100 5 3 45 92 96 63 48 5 0 0 0 4 12 5 5 5 0 0 0 0 0 20 79 5 2 1
39 81 9 13 100 100 100 89 100 99 100 80 18 4 53 34 6 94 100 57 100 100 50 5 14 50 100 100 98 5 1 0 0 2 46 6 10 35 5 0 0 0 0 0 97 100 98 56 15
4 78 5 98 100 100 100 19 100 65 24 4 1 4 5 8 17 100 50 5 8 30 8 5 89 82 100 100 67 4 0 1 5 31 6 5 45 94 5 0 0 0 0 0 88 100 77 5 6
0 2 1 99 100 51 92 34 97 20 28 70 5 3 0 0 5 100 22 4 5 57 31 6 60 5 100 89 5 4 5 2 21 15 5 5 97 64 3 0 0 0 0 0 68 100 54 5 5
84 100 70 0 42 7 70 46 1 1 8 4 9 8 4 38 5 19 3 2 5 4 5 2 1 0 5 6 5 5 57 35 32 59 61 5 3 2 0 0 0 0 2 4 5 46 12 40 59
32 1 0 0 1 6 38 0 2 1 42 5 99 4 4 1 4 90 55 0 1 4 1 0 0 0 5 15 71 5 100 86 96 50 70 5 0 0 33 0 3 2 0 0 5 5 34 33 7
0 0 0 0 0 4 94 29 0 0 4 82 5 4 0 0 0 5 5 0 0 0 0 0 1 39 53 37 5 21 22 5 4 0 0 0 0 0 92 52 4 32 98 47 96 100 65 96 53
0 0 0 0 0 1 89 9 0 0 2 2 4 1 0 0 0 0 0 0 0 0 0 0 5 22 53 95 10 2 2 2 0 0 0 0 0 0 0 2 38 5 5 18 22 14 34 46 31
0 0 0 0 0 0 2 1 0 0 0 0 0 0 0 0 0 0 0 0 0 0 0 5 9 96 92 75 5 0 0 0 0 0 25 94 95 86 5 5 5 8 2 0 0 5 14 69 6
0 5 0 0 0 4 0 0 0 0 0 0 0 0 0 0 0 1 0 0 0 0 4 6 98 96 73 45 1 0 0 0 0 0 0 0 0 0 0 0 0 5 2 3 0 0 0 0 0
0 0 0 0 0 37 0 0 0 1 0 0 0 0 5 3 2 2 0 1 0 5 24 100 95 74 72 5 0 0 0 0 0 0 1 4 0 0 0 4 3 18 3 5 5 13 20 8 5
0 0 0 0 0 0 8 0 2 3 0 0 0 0 0 6 7 0 0 0 14 99 100 100 88 86 5 0 0 0 0 0 0 2 5 0 1 0 34 6 5 5 33 100 100 32 7 44 97
0 0 0 0 0 0 0 0 0 0 0 0 0 0 0 5 1 0 0 5 98 100 100 100 62 5 0 0 0 0 0 8 0 92 0 4 0 3 1 91 94 100 100 100 100 38 100 100 100
1 4 0 0 0 0 0 0 0 1 0 0 0 0 0 0 0 5 9 70 100 100 100 5 5 1 0 0 0 0 0 24 16 51 2 0 0 0 23 100 73 99 100 100 100 100 100 100 100
30 1 1 0 0 0 0 2 22 59 0 0 0 0 1 3 12 5 100 100 100 95 7 5 0 0 0 0 0 0 68 2 15 97 35 0 2 65 100 81 100 96 100 100 100 100 100 99 100
2 16 0 0 0 0 0 1 98 36 3 1 0 0 0 72 100 100 100 100 90 18 5 0 0 0 0 0 0 6 74 0 100 86 85 1 4 100 98 100 86 71 99 99 100 100 100 100 100
28 5 4 0 0 1 0 0 100 3 4 0 0 1 5 100 100 100 60 68 100 5 0 0 0 0 0 0 0 77 18 3 100 59 100 1 31 39 100 100 85 15 100 91 100 100 100 100 100